Retour au catalogue

STARLINK-5029

ActifCommunicationsVLEO
NORAD 53887·PAYLOAD·🇺🇸 United States

Lancé Sep 24, 2022 depuis Cape Canaveral Space Force Station

Loading…

Prochains Passages (prochaines 24 heures)

TLE

FraisSource: CelesTrak SupGP

Époque: Sep 15, 2026, 01:11 UTC

1 53887C 22119B   26258.04979167 -.00023128  00000+0 -74382-3 0  2584
2 53887  53.1578 188.1976 0001359  91.7463 355.8337 15.31709802    11

Suivez STARLINK-5029 en temps réel avec AllMySat

Download on the App Store